Samos, Greece

7:10 AM EET on December 04, 2016 (GMT +0200)
Samos

Weather History for LGSM - October, 2013

Change the Weather History Date:

Tuesday, October 15, 2013

  Actual Average Record
Temperature  
Mean Temperature 72 °F -  
Max Temperature 80 °F 72 °F 81 °F (2012)
Min Temperature 65 °F 59 °F 55 °F (1999)
Cooling Degree Days 8    
Growing Degree Days 22 (Base 50)    
Moisture  
Dew Point 54 °F    
Average Humidity 52    
Maximum Humidity 73    
Minimum Humidity 28    
Precipitation  
Precipitation 0.00 in - - ()
Sea Level Pressure  
Sea Level Pressure 30.05 in    
Wind  
Wind Speed 5 mph ()    
Max Wind Speed 8 mph    
Max Gust Speed -    
Visibility 6.0 miles    
Events      
Averages and records for this station are not official NWS values.
T = Trace of Precipitation, MM = Missing Value Source: Averaged Metar Reports

Daily Weather History Graph

Daily Weather History Graph

Search for Another Location

Airport or City:

Trip Planner

Search our weather history database for the weather conditions in past years. The results will help you decide how hot, cold, wet, or windy it might be!

Date:

Astronomy

Oct. 15, 2013 Rise Set
Actual Time 7:20 AM EEST 6:35 PM EEST
Civil Twilight 6:54 AM EEST 7:01 PM EEST
Nautical Twilight 6:23 AM EEST 7:31 PM EEST
Astronomical Twilight 5:53 AM EEST 8:02 PM EEST
Moon 4:25 PM EEST (10/15) 3:25 AM EEST (10/15)
Length of Visible Light 12h 07m
Length of Day
11h 14m
Waxing Gibbous, 85% of the Moon is Illuminated
Oct 15
Waxing Gibbous
Oct 19
Full
Oct 27
Last Quarter
Nov 3
New
Nov 10
First Quarter

Hourly Weather History & Observations

Time (EEST) Temp. Heat Index Dew Point Humidity Pressure Visibility Wind Dir Wind Speed Gust Speed Precip Events Conditions
4:50 AM 66.2 °F - 53.6 °F 64% 30.06 in - SW 3.5 mph - N/A   Clear
5:20 AM 66.2 °F - 53.6 °F 64% 30.06 in - NNW 3.5 mph - N/A   Clear
5:50 AM 66.2 °F - 53.6 °F 64% 30.06 in - NW 5.8 mph - N/A   Clear
6:20 AM 64.4 °F - 53.6 °F 68% 30.06 in - North 6.9 mph - N/A   Clear
6:50 AM 64.4 °F - 53.6 °F 68% 30.06 in - North 8.1 mph - N/A   Clear
7:20 AM 64.4 °F - 55.4 °F 73% 30.06 in - NE 3.5 mph - N/A   Clear
7:50 AM 66.2 °F - 53.6 °F 64% 30.06 in - Variable 2.3 mph - N/A   Clear
8:20 AM 68.0 °F - 55.4 °F 64% 30.06 in - East 2.3 mph - N/A   Clear
8:50 AM 68.0 °F - 55.4 °F 64% 30.06 in - North 6.9 mph - N/A   Clear
9:00 AM 68 °F - 55 °F 55% 30.09 in 6 mi North 6.9 mph - -  
9:20 AM 69.8 °F - 53.6 °F 56% 30.06 in - North 5.8 mph - N/A   Clear
9:50 AM 71.6 °F - 55.4 °F 57% 30.09 in - NNE 4.6 mph - N/A   Clear
10:20 AM 73.4 °F - 55.4 °F 53% 30.09 in - NNE 5.8 mph - N/A   Clear
10:50 AM 75.2 °F - 55.4 °F 50% 30.06 in - ENE 5.8 mph - N/A   Clear
11:20 AM 75.2 °F - 53.6 °F 47% 30.06 in - NE 5.8 mph - N/A   Clear
11:50 AM 77.0 °F - 51.8 °F 41% 30.06 in - East 6.9 mph - N/A   Clear
12:20 PM 77.0 °F - 51.8 °F 41% 30.06 in - SSE 5.8 mph - N/A   Clear
12:50 PM 77.0 °F - 51.8 °F 41% 30.06 in - South 8.1 mph - N/A   Clear
1:20 PM 78.8 °F - 51.8 °F 39% 30.06 in - South 8.1 mph - N/A   Clear
1:50 PM 78.8 °F - 51.8 °F 39% 30.06 in - SE 5.8 mph - N/A   Clear
2:20 PM 78.8 °F - 51.8 °F 39% 30.06 in - SE 5.8 mph - N/A   Clear
2:50 PM 80.6 °F 80.3 °F 53.6 °F 39% 30.04 in - SSE 6.9 mph - N/A   Clear
3:00 PM 80 °F - 53 °F 28% 30.05 in 6 mi SSE 6.9 mph - -  
3:20 PM 80.6 °F 80.3 °F 53.6 °F 39% 30.04 in - SSE 6.9 mph - N/A   Clear
3:50 PM 80.6 °F - 51.8 °F 37% 30.04 in - ESE 4.6 mph - N/A   Clear
4:20 PM 80.6 °F 80.3 °F 53.6 °F 39% 30.04 in - ESE 6.9 mph - N/A   Clear
4:50 PM 80.6 °F - 51.8 °F 37% 30.01 in - East 5.8 mph - N/A   Clear
5:20 PM 80.6 °F - 51.8 °F 37% 30.01 in - East 5.8 mph - N/A   Clear
7:20 PM 71.6 °F - 59.0 °F 64% 29.98 in - East 3.5 mph - N/A   Clear
7:50 PM 69.8 °F - 60.8 °F 73% 29.98 in - Calm Calm - N/A   Clear
8:20 PM 69.8 °F - 60.8 °F 73% 29.98 in - Calm Calm - N/A   Clear